Temp
22 22 22 21 21 21 21 21 21 21 21 20 20 20 20 19 19 19 19 19 19 19 19 19 19 19 20 20 19 20 20 19 15 14 14 14 14 14 14 14 14 14 14
23 22 22 21 21 21 21 21 21 21 21 21 20 20 19 19 18 18 18 18 18 19 19 19 18 19 19 19 19 19 19 18 15 14 13 13 13 13 13 13 13 14 14
22 22 22 21 21 21 21 21 21 20 20 20 20 20 19 19 18 18 18 18 18 18 18 19 18 19 18 18 18 18 17 15 14 13 13 13 12 13 12 12 12 13 13
22 22 21 21 21 21 21 21 20 20 20 20 20 19 19 18 18 18 18 18 17 17 18 18 18 18 18 18 18 17 15 14 14 14 13 13 13 12 13 12 12 13 13
22 22 22 22 22 21 21 21 20 20 20 20 20 19 19 19 18 18 18 18 18 17 17 17 17 17 17 17 17 16 15 14 13 13 13 12 12 12 13 13 13 13 13
23 22 22 22 22 21 21 21 21 20 20 20 20 19 19 19 18 18 18 17 17 17 16 16 17 17 17 17 17 16 17 16 14 14 13 13 13 14 14 14 14 13 13
23 23 22 22 21 21 21 21 21 20 20 20 19 20 19 19 18 18 18 18 17 17 17 16 17 16 17 17 16 16 16 16 16 16 15 15 14 14 14 14 14 14 14
23 23 23 22 22 21 21 20 18 18 20 20 19 19 19 18 18 18 18 18 17 17 17 17 17 16 16 16 16 16 15 15 16 16 16 15 15 15 15 15 15 15 14
22 22 22 20 21 19 19 17 18 17 17 18 19 19 19 18 18 18 18 17 17 17 16 16 17 17 16 16 17 17 16 16 16 16 16 16 15 16 16 16 15 15 13
20 21 21 21 20 19 18 18 19 18 16 17 17 18 19 18 18 17 17 17 17 16 16 16 16 16 16 16 17 17 16 16 15 15 15 15 15 16 16 16 16 16 13
20 20 19 19 20 20 19 18 18 18 16 17 17 17 18 18 18 17 17 17 17 16 16 16 16 16 16 16 16 16 16 16 15 15 15 15 15 15 15 15 15 15 15
19 19 19 19 19 19 19 18 18 17 17 17 17 16 17 17 18 17 17 17 17 17 17 16 16 16 16 16 16 16 16 15 15 15 15 15 15 15 15 15 15 15 15
18 18 17 17 17 18 18 18 17 18 17 17 17 17 16 16 17 17 17 17 17 17 17 17 16 16 16 16 16 16 16 16 16 16 16 15 16 15 15 15 15 15 15
18 17 17 17 16 17 17 17 17 17 17 17 17 16 16 16 16 16 17 16 16 16 16 16 16 16 16 16 15 16 16 16 16 16 16 16 15 15 15 16 16 15 16
17 17 17 16 16 16 15 15 15 16 16 17 17 16 16 15 16 17 17 16 16 16 16 15 15 15 15 15 15 16 15 16 16 16 16 16 16 16 16 15 16 15 15
17 17 17 17 16 15 16 15 15 15 15 15 16 16 16 16 17 16 17 16 16 15 14 14 14 15 15 15 16 16 16 16 16 16 16 16 16 16 16 15 15 15 15
18 17 17 17 17 16 15 14 14 15 15 15 15 15 15 15 16 16 16 16 15 14 15 15 14 15 15 15 15 16 16 16 16 16 16 16 16 15 15 15 15 15 15
18 17 17 17 17 16 17 16 15 14 14 14 14 14 14 15 15 16 15 15 14 13 14 14 15 15 15 15 16 16 16 16 16 16 16 16 16 16 15 15 15 15 15
18 18 17 17 17 17 17 17 17 15 14 14 13 13 13 14 14 14 13 14 14 14 14 15 15 15 15 15 16 16 16 16 16 16 16 16 16 16 16 15 15 15 15
18 18 18 18 18 17 17 16 16 15 15 14 14 14 13 12 12 13 13 14 14 14 15 15 15 15 15 15 15 16 17 16 16 16 16 16 16 15 16 15 15 15 14
20 19 19 18 18 18 17 16 16 16 15 15 15 16 15 14 13 13 13 13 13 13 14 14 14 14 15 15 15 16 17 16 16 16 16 16 16 15 15 15 15 15 15
17 19 19 19 18 18 17 17 17 17 16 16 16 16 15 14 14 14 13 13 13 13 14 14 14 14 15 16 16 16 17 16 16 16 16 16 16 16 15 14 14 14 14
17 17 18 19 18 18 18 17 17 17 18 18 16 15 15 15 14 14 14 13 14 14 15 14 15 15 16 16 16 17 17 17 17 17 17 16 16 14 14 14 14 13 13
15 16 16 17 17 18 17 17 17 17 18 18 18 16 15 13 14 14 15 14 15 15 15 15 15 16 16 16 16 17 18 17 17 17 16 16 15 14 14 13 13 12 12
14 15 15 16 16 17 16 15 15 16 17 18 18 17 15 14 13 14 14 15 16 16 16 16 16 17 17 17 17 17 16 16 16 15 16 15 14 13 11 11 11 11 11
13 14 15 16 16 15 15 15 15 14 14 14 14 15 15 15 14 14 14 14 14 14 13 13 13 14 15 14 15 14 13 13 13 14 12 12 11 11 11 11 10 10 10
Height
800 799 802 802 805 806 808 810 809 809 809 810 811 813 812 811 810 810 808 808 808 808 806 804 804 804 803 803 805 807 810 814 822 829 831 835 837 838 839 839 840 841 842
801 801 802 801 802 808 808 810 811 809 809 810 812 813 814 814 813 810 808 810 810 808 807 807 806 806 804 805 806 807 810 813 817 825 831 834 837 838 839 840 841 842 843
801 802 801 804 803 806 809 809 812 811 810 811 812 814 815 815 813 813 812 810 811 809 809 810 809 808 808 808 807 808 810 813 817 822 829 833 836 838 840 841 843 845 845
799 802 803 803 805 804 807 809 809 813 812 813 813 815 815 816 816 815 813 812 811 811 811 812 812 811 811 810 810 811 811 814 819 824 829 833 835 837 839 841 843 844 846
800 801 803 805 804 802 804 808 810 812 812 813 812 813 815 814 816 817 816 815 814 814 814 815 814 814 814 814 813 814 815 817 822 826 829 832 834 836 837 840 841 843 845
798 798 800 803 801 800 801 805 808 810 812 812 811 812 812 813 815 817 817 816 817 818 818 818 818 817 817 817 817 818 819 819 822 826 829 831 833 835 836 837 839 841 843
794 796 797 800 799 800 801 802 805 806 809 811 812 811 811 812 814 815 815 817 818 820 820 821 820 821 820 820 820 822 823 824 825 827 828 831 833 835 837 837 838 840 841
792 793 793 796 799 800 801 800 803 808 808 807 810 812 810 811 813 815 816 817 819 820 821 821 822 822 823 823 824 825 826 827 827 828 830 831 833 834 837 837 838 838 840
789 790 793 796 797 798 797 798 799 803 805 809 808 810 810 811 813 815 816 817 818 820 821 822 824 824 826 826 826 826 828 829 830 830 831 833 834 835 835 836 837 838 840
787 791 794 794 795 797 799 797 798 798 799 801 808 809 810 811 812 814 816 817 818 819 821 823 825 826 827 827 828 828 829 831 832 832 833 834 836 836 836 835 835 836 838
785 790 794 795 796 796 796 796 798 797 800 801 801 805 808 809 810 812 814 815 816 817 820 821 824 826 827 828 829 829 830 831 832 834 835 835 837 837 837 836 836 835 837
785 790 793 795 795 796 796 795 795 796 794 796 798 802 805 806 807 810 811 812 813 814 817 821 822 823 825 827 828 828 829 830 831 832 833 835 836 837 837 838 838 838 838
787 789 793 795 793 794 795 795 795 794 795 795 794 797 799 800 803 806 808 809 810 812 815 818 821 822 824 825 826 827 828 828 827 827 828 830 833 835 837 837 837 838 838
789 791 792 792 791 792 793 794 793 792 792 793 793 794 794 796 797 800 802 805 807 810 812 816 819 820 822 823 824 825 826 826 825 826 827 830 832 834 835 836 836 836 837
791 792 792 790 790 791 791 790 789 789 790 788 789 789 788 792 792 794 796 800 803 806 810 813 815 816 818 819 821 823 823 824 825 826 827 828 830 832 833 834 835 835 835
791 791 790 789 789 790 790 789 788 786 786 786 786 786 785 786 787 791 793 796 800 803 806 808 810 811 813 815 816 819 820 822 823 824 825 826 828 829 831 831 832 832 833
789 790 790 788 788 788 788 787 786 785 784 783 783 783 783 783 784 787 790 793 797 800 801 803 804 808 809 811 812 817 816 818 820 821 822 824 825 827 827 828 829 830 830
785 787 787 786 786 784 784 783 783 783 781 780 779 780 780 780 781 783 786 790 793 794 795 797 799 801 804 806 808 812 812 815 816 817 818 821 822 823 824 824 825 826 826
780 781 783 783 782 781 780 780 779 778 777 777 777 777 778 779 779 779 783 784 785 786 788 790 793 795 798 801 803 805 804 806 810 812 813 815 818 819 820 821 823 823 823
776 776 778 778 777 777 777 777 776 776 774 774 774 775 776 777 777 777 778 779 781 782 783 785 786 789 792 795 797 796 798 801 804 806 808 810 812 814 815 817 818 818 818
773 773 773 773 773 772 773 773 772 771 770 769 768 768 770 770 771 773 773 774 775 777 778 779 781 783 785 787 790 791 791 794 798 800 802 804 805 807 809 811 812 813 812
770 768 768 767 768 768 768 768 767 766 764 763 760 760 763 765 765 765 768 770 770 771 772 773 775 776 777 780 781 783 785 788 791 793 795 797 799 800 803 805 806 807 807
766 764 763 762 763 763 763 763 762 761 759 756 754 754 756 756 758 761 763 765 765 765 764 765 767 769 771 773 773 776 778 781 784 786 788 791 792 794 796 799 800 801 802
764 760 757 756 757 757 757 758 758 757 755 753 751 750 750 752 753 757 760 762 761 759 760 761 762 763 762 763 765 771 774 775 777 779 782 785 785 787 789 795 797 796 795
760 757 754 752 752 752 753 755 756 756 755 752 749 747 748 748 752 754 756 758 757 756 756 756 759 759 760 762 762 765 768 772 773 775 778 780 781 785 788 788 788 788 789
755 752 750 748 748 748 749 751 751 752 754 753 752 750 747 748 749 750 751 754 752 753 753 751 754 758 759 761 759 762 767 772 775 775 779 780 779 779 780 781 782 782 783
Wind_Speed
16 16 15 15 15 13 12 11 12 11 10 9 10 8 10 11 9 12 13 10 11 11 10 12 12 10 11 11 16 15 15 16 10 8 20 17 15 13 10 10 10 10 11
17 18 16 17 15 15 12 12 10 11 10 11 12 11 13 10 11 13 14 11 11 10 12 11 11 11 13 11 14 14 15 13 23 20 19 16 15 11 10 9 11 11 10
17 18 19 16 18 16 12 13 11 11 12 13 13 12 12 12 12 12 10 10 10 10 11 10 12 10 11 13 13 13 13 15 21 21 13 15 13 11 10 10 9 10 10
20 18 20 19 18 17 14 13 12 12 12 13 14 14 13 13 12 11 13 16 16 15 13 12 11 11 10 11 12 13 16 19 20 22 18 14 9 9 9 9 8 7 7
19 20 18 18 18 18 15 13 13 13 13 13 15 15 13 12 12 12 13 16 18 18 16 15 11 11 13 10 10 13 16 20 18 18 13 10 8 9 8 8 8 8 6
18 19 15 19 20 20 17 14 14 14 13 14 15 16 13 15 14 13 12 13 14 15 17 15 15 13 12 14 15 12 11 19 21 17 11 11 8 7 9 10 10 5 2
19 18 15 21 22 18 15 16 17 20 16 15 17 16 16 16 17 14 13 11 11 11 9 10 12 12 12 12 13 14 13 11 10 11 15 12 10 9 8 8 6 3 0
13 12 9 19 15 15 12 6 6 10 15 17 20 15 15 16 14 14 13 13 12 12 10 11 9 11 12 13 14 15 13 11 9 9 9 9 7 7 5 4 4 4 2
9 9 9 12 9 8 7 3 9 15 17 17 19 15 14 17 16 15 15 14 13 12 10 10 9 11 12 10 12 14 14 13 12 12 11 11 9 7 4 5 6 7 3
8 8 7 11 10 11 10 13 10 13 10 16 17 15 13 17 18 15 14 16 14 12 11 10 9 10 11 10 10 12 12 12 13 14 14 13 12 10 7 4 6 8 8
10 10 8 8 8 6 7 7 8 13 0 13 16 16 14 14 19 17 15 18 13 13 13 12 12 11 10 11 10 10 9 11 10 9 9 9 7 6 5 7 6 7 8
10 7 6 6 8 6 5 4 5 10 2 13 15 16 17 15 16 19 16 15 18 15 14 13 13 14 12 10 10 11 11 9 9 8 9 12 12 8 7 4 4 4 4
8 8 6 4 2 2 3 5 11 13 13 15 19 19 19 19 18 18 17 15 19 17 14 14 11 13 12 11 9 10 9 8 13 15 14 13 12 13 12 6 2 3 3
6 5 3 4 4 6 7 8 8 14 20 17 21 22 24 26 23 20 21 19 16 17 17 17 14 14 14 11 13 11 8 6 11 15 16 14 14 14 12 8 5 2 1
3 1 2 2 4 7 9 10 10 10 9 15 20 24 25 24 29 25 23 24 23 20 19 18 18 18 18 15 14 13 8 11 12 12 12 11 13 11 13 9 6 4 3
5 3 3 4 5 6 7 8 9 12 15 17 17 15 23 30 28 25 20 22 23 21 21 22 21 21 22 20 18 15 12 12 13 12 12 10 12 13 10 10 7 7 6
5 5 6 6 7 10 11 10 11 10 12 13 15 14 14 20 21 24 23 20 22 23 24 22 22 23 24 21 19 18 14 18 17 15 14 12 12 11 8 6 8 9 10
7 5 4 4 6 9 11 13 12 11 12 11 10 12 13 17 17 19 22 24 25 27 26 25 23 22 24 24 23 22 22 20 21 18 16 16 14 14 12 10 6 5 7
10 8 8 8 8 10 14 15 13 14 13 12 11 11 11 11 12 14 22 28 28 29 30 28 26 24 21 22 21 24 24 27 29 23 21 19 18 17 13 11 9 8 7
15 11 11 11 11 12 12 16 20 17 15 14 16 17 16 16 18 21 25 28 29 29 30 30 29 27 25 26 22 22 27 32 30 27 26 22 19 20 19 17 16 15 13
18 14 14 15 15 16 17 15 17 19 20 20 22 20 20 22 25 27 29 31 32 32 29 28 29 26 25 26 24 27 33 36 31 30 28 24 20 22 22 22 21 16 13
17 19 18 17 16 17 20 16 15 17 19 24 27 27 22 23 25 26 27 29 30 29 27 28 26 21 19 23 25 33 36 34 31 29 28 26 24 23 22 22 19 17 15
17 14 21 21 20 19 20 16 14 12 12 18 23 24 25 28 28 24 22 21 21 20 20 23 24 27 28 29 29 38 37 34 29 23 24 24 25 25 24 21 18 16 15
19 20 17 19 21 18 20 14 8 5 5 8 10 17 22 28 28 23 17 13 7 13 19 20 23 18 14 17 24 34 34 31 28 24 23 25 25 26 23 18 16 16 14
20 18 17 11 11 13 15 9 10 11 10 11 11 14 18 21 17 17 16 16 13 11 9 12 15 21 18 25 31 31 31 26 26 22 21 23 21 18 16 14 13 14 15
13 12 10 9 9 10 7 6 6 8 12 9 7 9 14 18 19 16 16 12 12 12 15 14 12 4 8 15 14 13 7 10 13 17 19 15 12 11 11 13 13 15 17
Wind_Direction
175 175 166 158 153 153 155 151 141 132 131 134 118 112 131 119 113 129 119 114 101 94 103 94 91 96 126 137 163 162 161 158 129 119 143 145 140 140 131 117 113 113 108
184 180 163 161 151 161 157 156 152 142 138 137 134 125 133 123 112 117 114 120 126 103 93 99 102 102 98 123 146 154 163 166 146 140 146 143 140 145 133 126 125 120 113
187 179 171 173 165 168 165 161 163 155 145 147 141 134 136 132 117 118 121 121 125 107 105 96 95 101 105 113 122 132 147 148 145 148 140 151 148 151 142 132 124 115 104
184 181 179 179 179 171 171 173 168 168 158 153 145 144 139 140 135 118 109 105 107 102 101 100 99 94 102 118 118 123 134 140 152 151 146 155 153 153 150 150 150 141 135
189 188 192 192 185 178 176 180 179 175 170 166 157 155 148 141 143 141 124 112 107 103 98 96 101 108 98 103 122 131 139 137 140 141 140 149 155 159 171 166 149 148 154
196 197 202 209 197 190 184 185 191 188 182 179 172 167 161 155 155 159 140 131 122 112 105 97 90 101 105 94 97 109 137 148 151 154 156 157 164 167 162 159 155 155 154
203 205 221 221 206 198 196 199 200 197 191 196 185 172 160 156 161 159 152 150 155 148 117 120 103 99 107 118 112 108 111 125 137 155 152 151 152 161 161 167 178 178 168
211 204 239 212 214 229 217 221 280 241 207 197 186 181 168 161 165 163 163 157 149 145 151 137 121 127 123 121 118 115 113 119 132 145 143 145 155 157 180 179 189 205 173
208 211 203 185 195 196 174 91 267 271 233 206 187 183 176 169 164 166 170 166 152 148 152 148 141 128 135 138 135 125 127 123 124 128 127 122 116 115 155 187 174 187 159
162 163 198 209 223 204 182 199 203 216 305 255 203 192 188 182 178 176 181 173 164 160 157 156 156 160 155 152 148 143 138 142 139 129 124 122 109 94 94 137 152 173 152
138 156 180 186 194 213 202 225 250 215 304 242 209 201 195 196 191 188 188 191 193 174 177 175 180 179 180 191 191 182 167 166 160 157 154 152 142 123 101 93 111 153 163
142 161 193 185 184 222 249 204 217 212 143 193 211 212 209 205 200 202 205 209 204 195 191 191 189 191 194 195 202 202 199 195 198 203 210 203 197 208 174 151 126 130 101
127 146 156 177 165 177 258 250 235 216 220 215 217 222 213 210 207 206 203 192 196 209 205 203 199 192 190 191 187 175 184 213 221 225 229 195 190 191 195 191 153 186 224
154 177 212 257 293 298 274 266 264 247 238 229 213 215 211 215 209 204 204 204 203 207 208 201 202 196 193 188 183 181 176 153 147 153 161 175 188 183 177 172 168 171 166
115 191 255 279 305 308 304 291 274 265 260 240 227 219 199 206 216 213 213 209 208 205 195 197 199 200 201 204 199 196 184 178 170 166 171 178 178 183 180 190 188 195 167
177 208 262 264 260 269 290 294 295 275 268 268 267 261 232 224 221 216 217 221 212 202 198 201 206 208 210 212 211 211 212 208 188 179 173 169 176 179 198 192 205 200 210
188 226 236 244 246 254 259 267 283 294 273 267 267 264 254 235 224 218 217 214 206 201 208 213 217 217 217 217 216 219 216 209 199 192 193 192 190 197 192 204 220 219 220
193 204 230 248 247 257 262 268 275 271 272 267 271 262 254 236 217 215 218 204 195 206 216 217 220 224 226 225 227 237 226 227 205 203 198 204 205 202 209 223 241 221 238
222 234 244 259 267 269 264 256 274 264 265 265 261 249 237 231 219 213 212 209 210 211 219 227 227 229 227 224 236 251 246 214 209 210 207 210 210 209 224 225 197 188 180
238 249 251 258 269 275 261 252 257 257 261 259 255 250 234 223 215 213 214 216 225 229 229 231 234 235 233 234 245 240 222 211 208 209 211 214 218 217 225 229 203 205 213
244 249 252 258 262 273 268 265 266 266 266 261 256 256 244 238 234 235 233 231 233 237 235 235 243 244 241 240 244 230 211 205 208 212 217 218 226 222 227 230 223 221 227
273 257 251 255 261 268 264 267 268 273 268 261 260 254 243 238 237 241 247 244 243 243 245 247 239 241 241 236 242 221 209 203 205 212 220 227 228 228 238 216 219 222 227
356 313 272 261 260 262 264 270 282 273 277 273 261 248 234 227 234 238 248 248 251 255 254 249 242 242 250 246 248 217 214 214 218 228 226 242 251 240 212 213 217 223 233
342 344 329 292 279 263 254 263 255 244 269 285 248 239 237 231 230 232 242 225 301 273 267 258 248 249 254 240 227 221 234 229 230 232 239 234 217 200 205 221 235 243 252
330 328 334 320 293 283 253 265 270 245 255 269 253 233 234 230 222 215 219 217 233 244 240 247 222 223 245 245 230 225 229 233 236 213 220 211 203 216 223 228 239 252 254
331 326 326 322 311 291 234 237 247 276 279 277 243 215 207 202 188 179 177 178 175 148 126 94 69 88 203 202 187 174 185 213 229 245 230 213 209 216 239 255 261 259 258